[[{"header":{"parameterUnit":"m.s-1","parameterCategory":1,"la1":30.2991,"la2":30.254,"lo1":-89.0895,"lo2":-89.0444,"dy":0.0017,"dx":0.0017,"nx":28,"ny":28,"refTime":"2024-12-20T03:00:00:Z","depth":0,"parameterNumber":2,"parameterNumberName":"U-component_of_WINDS"},"data":[0,0,0,0,0,0,0,0,0,0,0,0,0,0,0,0,0,0,0,0,0,0,0,0,0,0,0,0,0,0,0,0,0,0,0,0,0,0,0,0,0,0,0,0,0,0,0,0,0,0,0,0,0,0,0,0,0,0,1.1956,1.1955,0,1.1914,1.1913,1.1913,1.1887,1.1887,1.1887,1.1887,1.1843,1.1842,1.1841,0,0,0,0,0,0,0,0,0,0,0,0,0,1.2013,1.2012,1.1956,1.1955,1.1955,1.1914,1.1913,1.1913,1.1887,1.1887,1.1887,1.1887,1.1843,1.1842,1.1841,0,0,0,0,0,0,0,0,0,0,0,0,0,1.1981,1.2012,1.1956,1.1937,1.1935,1.1914,1.1913,1.1913,1.1887,1.1887,1.1887,1.1887,1.1843,1.1842,1.184,1.1834,0,0,1.1836,1.1835,0,0,0,0,0,0,0,0,1.1983,1.1979,1.194,1.1938,1.1936,1.1906,1.1917,1.1886,1.1887,1.1905,1.1887,1.1887,1.1864,1.186,1.1853,1.1832,1.183,1.1835,1.1834,1.1834,1.1833,0,0,0,0,0,0,0,1.1985,1.1981,1.1939,1.194,1.1937,1.1931,1.1926,1.1911,1.1886,1.1904,1.1902,1.1897,1.1862,1.1855,1.1852,1.183,1.1835,1.1834,1.1833,1.1832,1.1802,1.1802,0,0,0,0,0,0,1.1991,1.1983,1.194,1.1938,1.196,1.193,1.1924,1.1916,1.1886,1.1882,1.1898,1.1896,1.1857,1.1854,1.185,1.1841,1.1834,1.1832,1.1831,1.1802,1.1802,1.1802,0,0,0,0,0,0,1.1992,1.1987,1.1942,1.196,1.1954,1.1929,1.1919,1.1915,1.1907,1.1881,1.1877,1.1894,1.1857,1.1852,1.1839,1.1839,1.1832,1.183,1.1802,1.1802,1.1802,1.1823,0,0,0,0,0,0,1.1994,1.1988,1.1985,1.196,1.1953,1.1932,1.1919,1.1914,1.1904,1.1902,1.1877,1.1873,1.1857,1.1841,1.1837,1.1837,1.1829,1.1802,1.1802,1.1802,1.1822,1.1824,1.1826,0,0,0,0,0,1.1996,1.1992,1.1985,1.198,1.1949,1.1932,1.1928,1.191,1.1905,1.1902,1.1886,1.1873,1.184,1.184,1.1835,1.1835,1.1802,1.1802,1.1802,1.1822,1.1824,1.1826,0,0,0,0,0,0,1.2018,1.1989,1.198,1.1969,1.1953,1.1928,1.1923,1.1912,1.1897,1.1896,1.1874,1.1868,1.1857,1.1844,1.1845,1.1827,1.1819,1.1819,1.1836,1.1838,1.1839,1.1842,1.1828,0,0,0,0,0,1.2022,1.201,1.1985,1.1977,1.197,1.1948,1.194,1.1928,1.191,1.1903,1.1886,1.1869,1.1854,1.1845,1.1831,1.1821,1.1815,1.1818,1.182,1.1821,1.1821,1.1814,1.1815,1.1804,1.1804,1.1804,0,0,1.2029,1.2011,1.2005,1.1981,1.1968,1.1956,1.1943,1.1931,1.1922,1.1901,1.1887,1.1874,1.1854,1.1842,1.1836,1.1831,1.1823,1.1822,1.1823,1.1822,1.1815,1.1816,1.1817,1.1804,1.1804,1.1804,0,0,1.2036,1.2022,1.2014,1.2,1.198,1.1966,1.1964,1.194,1.1931,1.1917,1.1901,1.189,1.1866,1.1852,1.1842,1.1845,1.1833,1.184,1.1849,1.1843,1.1844,1.1845,1.1845,1.1846,1.184,1.184,1.184,0,1.2047,1.2029,1.2011,1.2,1.199,1.1971,1.1963,1.1951,1.1927,1.192,1.1915,1.1885,1.187,1.1855,1.1856,1.1848,1.1845,1.1843,1.1845,1.1846,1.1846,1.1847,1.1847,1.1841,1.1841,1.1841,1.1841,0,1.2044,1.2032,1.2028,1.2006,1.1995,1.1986,1.1966,1.1957,1.1946,1.1932,1.1918,1.19,1.1881,1.1877,1.1865,1.186,1.1858,1.185,1.1841,1.1849,1.1849,1.1849,1.1843,1.1842,1.1842,1.1842,0,0,1.2063,1.2031,1.203,1.202,1.1996,1.1987,1.1976,1.1959,1.1952,1.1936,1.1927,1.1907,1.19,1.1888,1.1875,1.187,1.1874,1.1863,1.1862,1.1865,1.1866,1.1872,1.1873,1.1866,1.1866,1.1866,1.1868,0,1.2066,1.2047,1.2031,1.2018,1.2006,1.1989,1.198,1.1965,1.1952,1.194,1.1925,1.1912,1.1903,1.1896,1.189,1.1874,1.1874,1.1874,1.1857,1.1856,1.1862,1.1873,1.1879,1.1882,1.1868,1.1868,1.1868,0,1.2067,1.2053,1.2039,1.2017,1.2011,1.2004,1.1987,1.1976,1.1958,1.1949,1.1937,1.1923,1.1912,1.1905,1.1888,1.1889,1.1881,1.1872,1.1872,1.1869,1.1862,1.187,1.1882,1.1883,1.1868,1.1868,1.1868,0,1.2082,1.2059,1.2048,1.204,1.2014,1.2009,1.1998,1.198,1.1971,1.1956,1.1949,1.1933,1.1924,1.1912,1.1894,1.1891,1.1879,1.1871,1.1871,1.1872,1.1869,1.1869,1.188,1.1865,1.1865,1.1865,1.1865,0,1.2087,1.2079,1.2054,1.2047,1.2038,1.2019,1.2011,1.1998,1.1982,1.1972,1.1956,1.1947,1.1925,1.1913,1.19,1.1888,1.1884,1.1876,1.1872,1.1877,1.1878,1.1871,1.187,1.1865,1.1865,1.1865,1.1865,0,1.2102,1.2085,1.2072,1.2049,1.2043,1.2037,1.2017,1.2009,1.1996,1.1984,1.198,1.1958,1.1944,1.1925,1.1905,1.1896,1.1885,1.188,1.1891,1.1889,1.189,1.189,1.1896,1.1896,1.1882,1.1882,1.1882,0,1.2106,1.21,1.2076,1.2069,1.2059,1.2047,1.2037,1.2019,1.201,1.1989,1.1984,1.1969,1.1955,1.1933,1.1915,1.1899,1.1893,1.1896,1.189,1.1896,1.1893,1.1893,1.1892,1.1897,1.1898,1.1898,1.1898,0,1.2115,1.2107,1.2095,1.2079,1.2069,1.2055,1.2041,1.2036,1.2015,1.2005,1.1991,1.198,1.196,1.1944,1.1926,1.1914,1.1903,1.19,1.1899,1.1904,1.1911,1.1907,1.1895,1.19,1.19,1.19,1.19,1.1899,1.2125,1.2118,1.2101,1.2087,1.2075,1.2063,1.2055,1.2041,1.2028,1.201,1.2,1.1986,1.1968,1.1943,1.1932,1.192,1.1916,1.1914,1.1914,1.1914,1.1915,1.1913,1.1917,1.1917,1.1917,1.1917,1.1917,0,1.2133,1.2121,1.2109,1.209,1.208,1.207,1.2054,1.2046,1.2034,1.2019,1.2006,1.1989,1.1974,1.1956,1.194,1.1934,1.1928,1.193,1.193,1.1928,1.192,1.1923,1.1935,1.1935,1.1935,1.1935,1.1935,1.1935,1.2136,1.2124,1.2115,1.2097,1.2085,1.2071,1.2063,1.2051,1.2039,1.2022,1.2009,1.1998,1.1981,1.1964,1.195,1.1945,1.1939,1.1943,1.1937,1.193,1.1928,1.1927,1.1929,1.1942,1.1942,1.1945,1.1945,1.1945]},{"header":{"parameterUnit":"m.s-1","parameterCategory":1,"la1":30.2991,"la2":30.254,"lo1":-89.0895,"lo2":-89.0444,"dy":0.0017,"dx":0.0017,"nx":28,"ny":28,"refTime":"2024-12-20T03:00:00:Z","depth":0,"parameterNumber":3,"parameterNumberName":"V-component_of_WINDS"},"data":[0,0,0,0,0,0,0,0,0,0,0,0,0,0,0,0,0,0,0,0,0,0,0,0,0,0,0,0,0,0,0,0,0,0,0,0,0,0,0,0,0,0,0,0,0,0,0,0,0,0,0,0,0,0,0,0,0,0,-1.4359,-1.436,0,-1.4465,-1.4466,-1.4467,-1.4504,-1.4503,-1.4503,-1.4503,-1.461,-1.4613,-1.4616,0,0,0,0,0,0,0,0,0,0,0,0,0,-1.4187,-1.419,-1.4358,-1.436,-1.4361,-1.4464,-1.4466,-1.4467,-1.4504,-1.4503,-1.4503,-1.4502,-1.4609,-1.4612,-1.4616,0,0,0,0,0,0,0,0,0,0,0,0,0,-1.4274,-1.4191,-1.4358,-1.4392,-1.4396,-1.4464,-1.4466,-1.4468,-1.4504,-1.4503,-1.4503,-1.4502,-1.4607,-1.4612,-1.4617,-1.4659,0,0,-1.4632,-1.4634,0,0,0,0,0,0,0,0,-1.4269,-1.428,-1.4386,-1.439,-1.4394,-1.447,-1.4445,-1.4532,-1.4504,-1.4463,-1.4503,-1.4502,-1.4564,-1.4572,-1.4593,-1.4664,-1.4669,-1.4632,-1.4635,-1.4637,-1.4638,0,0,0,0,0,0,0,-1.4263,-1.4276,-1.44,-1.4387,-1.4392,-1.4402,-1.4413,-1.4461,-1.4515,-1.4466,-1.4469,-1.4481,-1.4566,-1.4589,-1.4596,-1.467,-1.4632,-1.4636,-1.4639,-1.4641,-1.4783,-1.4784,0,0,0,0,0,0,-1.4252,-1.4271,-1.4397,-1.4404,-1.4329,-1.4405,-1.4418,-1.4447,-1.4515,-1.4525,-1.4482,-1.4483,-1.4581,-1.459,-1.46,-1.4656,-1.4637,-1.4642,-1.4644,-1.4782,-1.4783,-1.4784,0,0,0,0,0,0,-1.4248,-1.4263,-1.4393,-1.4338,-1.4355,-1.4409,-1.444,-1.4449,-1.4472,-1.4527,-1.4536,-1.4495,-1.458,-1.4593,-1.4645,-1.466,-1.4644,-1.4648,-1.4781,-1.4782,-1.4784,-1.4766,0,0,0,0,0,0,-1.4243,-1.4261,-1.4277,-1.4338,-1.4358,-1.4436,-1.4441,-1.4451,-1.448,-1.4482,-1.4542,-1.4551,-1.4581,-1.4637,-1.4649,-1.4666,-1.4652,-1.478,-1.4782,-1.4783,-1.4766,-1.4767,-1.4767,0,0,0,0,0,-1.4236,-1.4267,-1.4278,-1.4293,-1.438,-1.4436,-1.4448,-1.4482,-1.4481,-1.4498,-1.4534,-1.4549,-1.4656,-1.4642,-1.4656,-1.4675,-1.4779,-1.4781,-1.4783,-1.4765,-1.4766,-1.4767,0,0,0,0,0,0,-1.4206,-1.4276,-1.4289,-1.434,-1.4382,-1.4443,-1.4465,-1.4482,-1.4525,-1.4525,-1.4566,-1.4579,-1.4628,-1.4656,-1.464,-1.472,-1.4718,-1.4723,-1.47,-1.4702,-1.4703,-1.4695,-1.4656,0,0,0,0,0,-1.4205,-1.4246,-1.4304,-1.4344,-1.4365,-1.4411,-1.4437,-1.446,-1.4505,-1.4523,-1.4562,-1.4605,-1.4649,-1.4677,-1.4719,-1.4769,-1.4784,-1.4789,-1.479,-1.4791,-1.4795,-1.4825,-1.4829,-1.479,-1.479,-1.479,0,0,-1.4204,-1.4248,-1.427,-1.4339,-1.4375,-1.4416,-1.4426,-1.4469,-1.45,-1.4529,-1.4581,-1.4612,-1.4662,-1.4714,-1.4738,-1.4739,-1.4808,-1.4793,-1.4793,-1.4797,-1.4828,-1.4831,-1.4834,-1.4792,-1.4792,-1.4791,0,0,-1.4224,-1.426,-1.4298,-1.4334,-1.4388,-1.4419,-1.4428,-1.4486,-1.4508,-1.4561,-1.4584,-1.4622,-1.4695,-1.4731,-1.4759,-1.4793,-1.481,-1.4806,-1.4812,-1.4841,-1.4844,-1.4847,-1.4861,-1.4865,-1.481,-1.481,-1.481,0,-1.4216,-1.4279,-1.4315,-1.4358,-1.4388,-1.4418,-1.4457,-1.449,-1.4554,-1.4575,-1.4574,-1.4669,-1.4705,-1.4766,-1.4775,-1.4796,-1.4808,-1.48,-1.4841,-1.4844,-1.4847,-1.4861,-1.4866,-1.4809,-1.4809,-1.4809,-1.4809,0,-1.4267,-1.4311,-1.4335,-1.4399,-1.4431,-1.4472,-1.4515,-1.4543,-1.4564,-1.4595,-1.4649,-1.4693,-1.4747,-1.4763,-1.4782,-1.4827,-1.4826,-1.4833,-1.4832,-1.485,-1.4864,-1.4869,-1.4808,-1.4808,-1.4809,-1.4809,0,0,-1.427,-1.4355,-1.4363,-1.4393,-1.4455,-1.449,-1.4532,-1.4585,-1.461,-1.4653,-1.4691,-1.4753,-1.476,-1.4791,-1.4815,-1.4841,-1.4868,-1.4845,-1.4847,-1.4849,-1.4922,-1.4918,-1.4924,-1.4879,-1.488,-1.4881,-1.4919,0,-1.4299,-1.4377,-1.4412,-1.4474,-1.4515,-1.4545,-1.4582,-1.4624,-1.4654,-1.4694,-1.4727,-1.4772,-1.4777,-1.4796,-1.4823,-1.4859,-1.4884,-1.4856,-1.4914,-1.4916,-1.4902,-1.4931,-1.4926,-1.496,-1.4924,-1.4925,-1.4926,0,-1.4343,-1.4389,-1.4455,-1.4515,-1.4533,-1.4566,-1.4619,-1.4656,-1.4705,-1.4725,-1.4761,-1.4785,-1.4831,-1.4826,-1.4891,-1.4872,-1.4897,-1.4919,-1.4921,-1.4929,-1.4923,-1.4941,-1.4972,-1.4978,-1.4934,-1.4934,-1.4933,0,-1.4341,-1.4419,-1.4469,-1.4494,-1.4563,-1.4586,-1.4616,-1.4665,-1.4695,-1.4741,-1.4761,-1.4811,-1.4838,-1.4876,-1.4913,-1.4906,-1.4975,-1.4973,-1.4994,-1.4993,-1.5008,-1.5007,-1.5045,-1.5022,-1.5022,-1.5021,-1.5021,0,-1.4371,-1.441,-1.447,-1.4501,-1.4547,-1.4586,-1.4631,-1.4663,-1.4706,-1.4744,-1.4772,-1.4807,-1.4852,-1.4893,-1.4922,-1.4972,-1.4984,-1.5002,-1.501,-1.5001,-1.4999,-1.5019,-1.5018,-1.5023,-1.5023,-1.5022,-1.5022,0,-1.4376,-1.4417,-1.4475,-1.4536,-1.4553,-1.4584,-1.4638,-1.4669,-1.4701,-1.4749,-1.4763,-1.4813,-1.4863,-1.4903,-1.4968,-1.4987,-1.5041,-1.5048,-1.5025,-1.5029,-1.5048,-1.5047,-1.5102,-1.5112,-1.508,-1.5081,-1.5081,0,-1.4393,-1.4425,-1.4491,-1.4519,-1.4549,-1.4593,-1.4625,-1.4666,-1.4697,-1.4757,-1.4781,-1.4834,-1.4878,-1.4956,-1.4999,-1.5049,-1.5059,-1.5075,-1.5066,-1.5057,-1.5061,-1.506,-1.5064,-1.5076,-1.5076,-1.5076,-1.5076,0,-1.4419,-1.4438,-1.4483,-1.4536,-1.4573,-1.4616,-1.466,-1.4681,-1.473,-1.4764,-1.4816,-1.4851,-1.4918,-1.497,-1.5025,-1.5056,-1.5075,-1.5078,-1.5086,-1.5078,-1.5064,-1.5074,-1.5029,-1.5077,-1.5077,-1.5077,-1.5077,-1.5077,-1.4432,-1.4463,-1.4515,-1.4564,-1.4602,-1.4642,-1.4676,-1.4713,-1.4757,-1.4816,-1.4837,-1.4891,-1.4941,-1.5017,-1.5048,-1.5091,-1.5092,-1.5103,-1.5106,-1.5109,-1.5109,-1.5056,-1.5101,-1.5101,-1.5101,-1.5101,-1.5101,0,-1.4461,-1.4497,-1.4542,-1.4603,-1.4642,-1.4657,-1.4707,-1.4739,-1.4786,-1.4831,-1.4875,-1.4936,-1.4987,-1.5033,-1.5087,-1.5112,-1.5122,-1.5125,-1.5124,-1.5132,-1.5104,-1.5092,-1.5116,-1.5116,-1.5116,-1.5116,-1.5116,-1.5116,-1.4481,-1.4534,-1.456,-1.4632,-1.4667,-1.4721,-1.4749,-1.4787,-1.4823,-1.489,-1.4933,-1.4964,-1.501,-1.5067,-1.5115,-1.5127,-1.5146,-1.5147,-1.5162,-1.5135,-1.5133,-1.5131,-1.5121,-1.5151,-1.5151,-1.5187,-1.5187,-1.5187]}]]